• In Uzbekistan
  • List of Countries
  • For 7 days
  • Water Temperature
  • Weather Map
  • Weather Widgets
  • user-avatar
    Login

    Hourly Weather Sylhet

    Today, 2 April, Thursday

    Time Temperature Precipitation Wind Pressure Humidity
    00:00 +25°C° 0 mm 1 mps 755 mmHg 25%
    01:00 +24°C° 0 mm 1 mps 755 mmHg 27%
    02:00 +24°C° 0 mm 1 mps 754 mmHg 29%
    03:00 +23°C° 0 mm 1 mps 754 mmHg 31%
    04:00 +23°C° 0 mm 1 mps 754 mmHg 33%
    05:00 +21°C° 0 mm 2 mps 754 mmHg 35%
    06:00 +23°C° 0 mm 1 mps 755 mmHg 38%
    07:00 +26°C° 0 mm 2 mps 755 mmHg 38%
    08:00 +29°C° 0 mm 2 mps 755 mmHg 38%
    09:00 +32°C° 0 mm 2 mps 756 mmHg 38%
    10:00 +36°C° 0 mm 3 mps 755 mmHg 32%
    11:00 +38°C° 0 mm 4 mps 755 mmHg 27%
    12:00 +42°C° 0 mm 5 mps 754 mmHg 21%
    13:00 +42°C° 0 mm 5 mps 754 mmHg 21%
    14:00 +42°C° 0 mm 5 mps 753 mmHg 20%
    15:00 +42°C° 0 mm 6 mps 752 mmHg 19%
    16:00 +40°C° 0 mm 5 mps 752 mmHg 21%
    17:00 +37°C° 0 mm 3 mps 752 mmHg 22%
    18:00 +36°C° 0 mm 2 mps 752 mmHg 24%
    19:00 +34°C° 0 mm 3 mps 753 mmHg 27%
    20:00 +31°C° 0 mm 3 mps 753 mmHg 31%
    21:00 +30°C° 0 mm 3 mps 754 mmHg 35%
    22:00 +29°C° 0 mm 3 mps 754 mmHg 46%
    23:00 +28°C° 0 mm 3 mps 754 mmHg 57%

    Tomorrow, 3 April, Friday

    Time Temperature Precipitation Wind Pressure Humidity
    00:00 +27°C° 0 mm 2 mps 754 mmHg 68%
    01:00 +27°C° 0 mm 2 mps 754 mmHg 70%
    02:00 +26°C° 0 mm 2 mps 754 mmHg 73%
    03:00 +26°C° 0 mm 2 mps 754 mmHg 76%
    04:00 +25°C° 0 mm 2 mps 755 mmHg 79%
    05:00 +25°C° 0 mm 2 mps 755 mmHg 82%
    06:00 +24°C° 0 mm 2 mps 755 mmHg 86%
    07:00 +27°C° 0 mm 2 mps 756 mmHg 77%
    08:00 +29°C° 0 mm 2 mps 756 mmHg 68%
    09:00 +32°C° 0 mm 2 mps 757 mmHg 60%
    10:00 +35°C° 0 mm 2 mps 756 mmHg 51%
    11:00 +37°C° 0 mm 2 mps 756 mmHg 43%
    12:00 +39°C° 0 mm 3 mps 755 mmHg 35%
    13:00 +40°C° 0 mm 3 mps 754 mmHg 31%
    14:00 +41°C° 0 mm 4 mps 753 mmHg 26%
    15:00 +42°C° 0 mm 4 mps 753 mmHg 22%
    16:00 +38°C° 0.1 mm 4 mps 753 mmHg 30%
    17:00 +35°C° 0.1 mm 4 mps 753 mmHg 38%
    18:00 +31°C° 0.1 mm 3 mps 753 mmHg 46%
    19:00 +29°C° 0.4 mm 3 mps 754 mmHg 55%
    20:00 +27°C° 0.4 mm 3 mps 755 mmHg 63%
    21:00 +25°C° 0.4 mm 3 mps 756 mmHg 72%
    22:00 +25°C° 0.8 mm 3 mps 756 mmHg 76%
    23:00 +24°C° 0.8 mm 3 mps 756 mmHg 80%

    Day after tomorrow, 4 April, Saturday

    Time Temperature Precipitation Wind Pressure Humidity
    00:00 +22°C° 0.8 mm 3 mps 756 mmHg 84%
    01:00 +22°C° 0.5 mm 3 mps 756 mmHg 86%
    02:00 +22°C° 0.5 mm 3 mps 756 mmHg 88%
    03:00 +22°C° 0.5 mm 3 mps 755 mmHg 89%
    04:00 +22°C° 0 mm 3 mps 756 mmHg 90%
    05:00 +24°C° 0 mm 3 mps 756 mmHg 91%
    06:00 +24°C° 0 mm 3 mps 756 mmHg 91%
    07:00 +25°C° 0 mm 3 mps 756 mmHg 85%
    08:00 +27°C° 0 mm 2 mps 757 mmHg 80%
    09:00 +29°C° 0 mm 2 mps 757 mmHg 74%
    10:00 +32°C° 0 mm 2 mps 757 mmHg 60%
    11:00 +35°C° 0 mm 2 mps 756 mmHg 47%
    12:00 +38°C° 0 mm 2 mps 756 mmHg 34%
    13:00 +39°C° 0 mm 3 mps 755 mmHg 28%
    14:00 +41°C° 0 mm 4 mps 754 mmHg 22%
    15:00 +42°C° 0 mm 4 mps 753 mmHg 17%
    16:00 +40°C° 0 mm 4 mps 753 mmHg 17%
    17:00 +37°C° 0 mm 3 mps 753 mmHg 18%
    18:00 +35°C° 0 mm 3 mps 754 mmHg 18%
    19:00 +33°C° 0 mm 3 mps 754 mmHg 29%
    20:00 +30°C° 0 mm 3 mps 755 mmHg 40%
    21:00 +28°C° 0 mm 3 mps 756 mmHg 51%
    22:00 +27°C° 0 mm 3 mps 756 mmHg 57%
    23:00 +27°C° 0 mm 3 mps 756 mmHg 63%

    5 April, Sunday

    Time Temperature Precipitation Wind Pressure Humidity
    00:00 +26°C° 0 mm 2 mps 756 mmHg 69%
    01:00 +25°C° 0.1 mm 2 mps 756 mmHg 72%
    02:00 +25°C° 0.1 mm 2 mps 756 mmHg 75%
    03:00 +25°C° 0.1 mm 2 mps 756 mmHg 78%
    04:00 +25°C° 0 mm 2 mps 756 mmHg 80%
    05:00 +26°C° 0 mm 2 mps 756 mmHg 82%
    06:00 +26°C° 0 mm 2 mps 756 mmHg 84%
    07:00 +27°C° 0 mm 2 mps 757 mmHg 79%
    08:00 +28°C° 0 mm 2 mps 757 mmHg 75%
    09:00 +29°C° 0 mm 2 mps 758 mmHg 71%
    10:00 +32°C° 0 mm 2 mps 757 mmHg 59%
    11:00 +36°C° 0 mm 2 mps 756 mmHg 48%
    12:00 +37°C° 0 mm 1 mps 756 mmHg 36%
    13:00 +40°C° 0 mm 3 mps 755 mmHg 30%
    14:00 +42°C° 0 mm 4 mps 754 mmHg 23%
    15:00 +43°C° 0 mm 5 mps 753 mmHg 17%
    16:00 +41°C° 0 mm 4 mps 753 mmHg 18%
    17:00 +38°C° 0 mm 4 mps 753 mmHg 20%
    18:00 +36°C° 0 mm 3 mps 753 mmHg 22%
    19:00 +33°C° 0 mm 3 mps 754 mmHg 33%
    20:00 +30°C° 0 mm 3 mps 754 mmHg 43%
    21:00 +28°C° 0 mm 2 mps 755 mmHg 54%
    22:00 +27°C° 0.1 mm 2 mps 755 mmHg 60%
    23:00 +26°C° 0.1 mm 2 mps 755 mmHg 67%

    6 April, Monday

    Time Temperature Precipitation Wind Pressure Humidity
    00:00 +25°C° 0.1 mm 3 mps 755 mmHg 73%
    01:00 +25°C° 0 mm 3 mps 755 mmHg 75%
    02:00 +25°C° 0 mm 3 mps 755 mmHg 77%
    03:00 +25°C° 0 mm 2 mps 755 mmHg 78%
    04:00 +25°C° 0 mm 3 mps 755 mmHg 80%
    05:00 +26°C° 0 mm 3 mps 755 mmHg 82%
    06:00 +26°C° 0 mm 3 mps 755 mmHg 83%
    07:00 +27°C° 0 mm 3 mps 756 mmHg 79%
    08:00 +28°C° 0 mm 2 mps 756 mmHg 74%
    09:00 +29°C° 0 mm 2 mps 756 mmHg 70%
    10:00 +31°C° 0 mm 2 mps 756 mmHg 59%
    11:00 +35°C° 0 mm 2 mps 755 mmHg 49%
    12:00 +38°C° 0 mm 2 mps 754 mmHg 38%
    13:00 +39°C° 0 mm 3 mps 754 mmHg 31%
    14:00 +42°C° 0 mm 3 mps 753 mmHg 23%
    15:00 +43°C° 0 mm 4 mps 752 mmHg 15%
    16:00 +41°C° 0 mm 4 mps 751 mmHg 15%
    17:00 +38°C° 0 mm 3 mps 751 mmHg 14%
    18:00 +37°C° 0 mm 3 mps 751 mmHg 14%
    19:00 +34°C° 0 mm 3 mps 751 mmHg 29%
    20:00 +31°C° 0 mm 3 mps 752 mmHg 45%
    21:00 +28°C° 0 mm 4 mps 753 mmHg 61%
    22:00 +28°C° 0 mm 4 mps 753 mmHg 69%
    23:00 +27°C° 0 mm 3 mps 753 mmHg 78%

    7 April, Tuesday

    Time Temperature Precipitation Wind Pressure Humidity
    00:00 +26°C° 0 mm 3 mps 753 mmHg 86%
    01:00 +27°C° 0 mm 3 mps 753 mmHg 84%
    02:00 +27°C° 0 mm 3 mps 753 mmHg 82%
    03:00 +27°C° 0 mm 3 mps 752 mmHg 81%
    04:00 +27°C° 0 mm 3 mps 753 mmHg 82%
    05:00 +27°C° 0 mm 2 mps 753 mmHg 84%
    06:00 +26°C° 0 mm 2 mps 754 mmHg 85%
    07:00 +28°C° 0.1 mm 2 mps 754 mmHg 78%
    08:00 +30°C° 0.1 mm 3 mps 754 mmHg 71%
    09:00 +33°C° 0.1 mm 3 mps 755 mmHg 63%
    10:00 +35°C° 0 mm 3 mps 754 mmHg 54%
    11:00 +37°C° 0 mm 2 mps 754 mmHg 45%
    12:00 +39°C° 0 mm 2 mps 753 mmHg 36%
    13:00 +42°C° 0 mm 3 mps 753 mmHg 30%
    14:00 +43°C° 0 mm 4 mps 752 mmHg 24%
    15:00 +45°C° 0 mm 5 mps 751 mmHg 18%
    16:00 +42°C° 0 mm 4 mps 751 mmHg 24%
    17:00 +38°C° 0 mm 3 mps 750 mmHg 30%
    18:00 +36°C° 0 mm 2 mps 750 mmHg 36%
    19:00 +34°C° 0 mm 3 mps 751 mmHg 45%
    20:00 +33°C° 0 mm 3 mps 752 mmHg 54%
    21:00 +30°C° 0 mm 4 mps 753 mmHg 63%
    22:00 +29°C° 0 mm 3 mps 753 mmHg 68%
    23:00 +28°C° 0 mm 3 mps 753 mmHg 73%
    Show more